SBI5013 UNNT-USSS

Flight info

Callsign SBI5013
Flight time 2h 1m
Altitude 34000
Route OGAMA1K/25 OGAMA A308 ML A305 LUKAS L749 BASAB N170 NEKER
Aircraft A20N/M-SDE2E3FGHIRWXY/LB1

Departure

Time 2026-05-05 15:16
Airport Novosibirsk Tolmachevo Airport (UNNT)

Arrival

Time 2026-05-05 17:18
Airport Koltsovo Airport (USSS)
Time Latitude Longitude Altitude Speed Heading
2026-05-05 14:47 55.00946 82.65448 373 ft 0 kts 171°
2026-05-05 15:12 55.00943 82.65449 373 ft 2 kts 171°
2026-05-05 15:12 55.00933 82.65453 373 ft 1 kts 163°
2026-05-05 15:12 55.00915 82.65480 373 ft 8 kts 128°
2026-05-05 15:12 55.00916 82.65601 373 ft 12 kts 85°
2026-05-05 15:13 55.00929 82.65767 373 ft 15 kts 79°
2026-05-05 15:13 55.00946 82.65964 373 ft 18 kts 83°
2026-05-05 15:13 55.00982 82.66180 373 ft 19 kts 64°
2026-05-05 15:13 55.01032 82.66412 373 ft 21 kts 75°
2026-05-05 15:14 55.01094 82.66655 373 ft 21 kts 38°
2026-05-05 15:14 55.01186 82.66635 373 ft 12 kts 352°
2026-05-05 15:14 55.01262 82.66618 373 ft 0 kts 351°
2026-05-05 15:15 55.01266 82.66617 373 ft 6 kts 351°
2026-05-05 15:15 55.01368 82.66562 374 ft 15 kts 307°
2026-05-05 15:15 55.01368 82.66442 374 ft 11 kts 260°
2026-05-05 15:15 55.01338 82.66128 372 ft 65 kts 259°
2026-05-05 15:16 55.01223 82.64841 372 ft 146 kts 261°
2026-05-05 15:16 55.01017 82.62830 809 ft 176 kts 259°
2026-05-05 15:16 55.00809 82.60758 1898 ft 171 kts 263°
2026-05-05 15:16 55.00622 82.58739 2948 ft 171 kts 264°
2026-05-05 15:17 55.00437 82.56564 3518 ft 190 kts 264°
2026-05-05 15:17 55.00241 82.54281 3807 ft 194 kts 263°
2026-05-05 15:17 55.00245 82.51930 3955 ft 195 kts 281°
2026-05-05 15:17 55.00755 82.49749 3999 ft 197 kts 302°
2026-05-05 15:18 55.01730 82.48036 4003 ft 205 kts 315°
2026-05-05 15:18 55.02925 82.46218 4008 ft 243 kts 315°
2026-05-05 15:18 55.04048 82.44020 4003 ft 243 kts 301°
2026-05-05 15:18 55.04900 82.41450 4333 ft 246 kts 296°
2026-05-05 15:19 55.05694 82.38818 5365 ft 243 kts 295°
2026-05-05 15:19 55.06495 82.36224 6545 ft 244 kts 295°
2026-05-05 15:19 55.07321 82.33659 7587 ft 244 kts 296°
2026-05-05 15:19 55.08172 82.31088 8703 ft 245 kts 296°
2026-05-05 15:20 55.09037 82.28509 9772 ft 247 kts 296°
2026-05-05 15:20 55.09919 82.25883 10603 ft 258 kts 296°
2026-05-05 15:20 55.10869 82.23043 10981 ft 282 kts 297°
2026-05-05 15:20 55.11898 82.19967 11439 ft 301 kts 297°
2026-05-05 15:21 55.12956 82.16823 12301 ft 305 kts 297°
2026-05-05 15:21 55.14051 82.13567 13244 ft 308 kts 298°
2026-05-05 15:21 55.15130 82.10349 14083 ft 313 kts 298°
2026-05-05 15:21 55.16244 82.07020 14819 ft 318 kts 298°
2026-05-05 15:22 55.17370 82.03644 15568 ft 324 kts 298°
2026-05-05 15:22 55.18514 82.00208 16296 ft 329 kts 298°
2026-05-05 15:22 55.19677 81.96711 17012 ft 335 kts 298°
2026-05-05 15:22 55.20859 81.93153 17730 ft 341 kts 298°
2026-05-05 15:23 55.22044 81.89579 18409 ft 346 kts 298°
2026-05-05 15:23 55.23254 81.85927 19185 ft 343 kts 298°
2026-05-05 15:23 55.24419 81.82415 20534 ft 323 kts 298°
2026-05-05 15:23 55.25512 81.79118 22001 ft 302 kts 297°
2026-05-05 15:24 55.26529 81.76044 23442 ft 281 kts 297°
2026-05-05 15:24 55.27467 81.73199 24649 ft 258 kts 297°
2026-05-05 15:24 55.28328 81.70582 25749 ft 237 kts 297°
2026-05-05 15:24 55.29143 81.68090 26348 ft 236 kts 297°
2026-05-05 15:25 55.29964 81.65570 26705 ft 239 kts 297°
2026-05-05 15:25 55.30784 81.63059 27098 ft 240 kts 297°
2026-05-05 15:25 55.31620 81.60501 27514 ft 241 kts 297°
2026-05-05 15:25 55.32459 81.57936 27911 ft 242 kts 298°
2026-05-05 15:26 55.33304 81.55350 28305 ft 243 kts 298°
2026-05-05 15:26 55.34150 81.52761 28658 ft 246 kts 298°
2026-05-05 15:26 55.35012 81.50115 28881 ft 253 kts 298°
2026-05-05 15:26 55.35898 81.47395 29121 ft 259 kts 298°
2026-05-05 15:27 55.36795 81.44638 29462 ft 261 kts 298°
2026-05-05 15:27 55.37689 81.41891 29845 ft 262 kts 298°
2026-05-05 15:27 55.38600 81.39087 30192 ft 264 kts 298°
2026-05-05 15:27 55.39515 81.36268 30510 ft 266 kts 298°
2026-05-05 15:28 55.40435 81.33432 30841 ft 267 kts 298°
2026-05-05 15:28 55.41358 81.30581 31142 ft 269 kts 297°
2026-05-05 15:28 55.42289 81.27702 31441 ft 271 kts 297°
2026-05-05 15:28 55.43212 81.24843 31746 ft 273 kts 297°
2026-05-05 15:29 55.44153 81.21929 32020 ft 275 kts 297°
2026-05-05 15:29 55.45101 81.18987 32300 ft 277 kts 297°
2026-05-05 15:29 55.46005 81.15987 32577 ft 278 kts 293°
2026-05-05 15:29 55.46768 81.12857 32858 ft 279 kts 289°
2026-05-05 15:30 55.47396 81.09600 33005 ft 284 kts 285°
2026-05-05 15:30 55.47894 81.06166 33064 ft 293 kts 283°
2026-05-05 15:30 55.48378 81.02622 33129 ft 301 kts 283°
2026-05-05 15:31 55.49408 80.95234 33262 ft 318 kts 283°
2026-05-05 15:31 55.50475 80.87502 33396 ft 335 kts 283°
2026-05-05 15:32 55.51597 80.79304 33531 ft 352 kts 283°
2026-05-05 15:32 55.52764 80.70718 33675 ft 367 kts 283°
2026-05-05 15:33 55.53976 80.61751 33826 ft 382 kts 283°
2026-05-05 15:33 55.54592 80.57180 33954 ft 384 kts 283°
2026-05-05 15:33 55.55207 80.52598 33956 ft 382 kts 282°
2026-05-05 15:34 55.56433 80.43415 33947 ft 393 kts 282°
2026-05-05 15:34 55.57704 80.33832 33945 ft 405 kts 282°
2026-05-05 15:35 55.58975 80.24189 33942 ft 404 kts 282°
2026-05-05 15:35 55.60232 80.14425 33954 ft 404 kts 282°
2026-05-05 15:36 55.61492 80.04777 33939 ft 404 kts 282°
2026-05-05 15:36 55.62752 79.95062 33943 ft 404 kts 282°
2026-05-05 15:37 55.63995 79.85410 33944 ft 405 kts 282°
2026-05-05 15:37 55.65250 79.75688 33941 ft 405 kts 281°
2026-05-05 15:38 55.66498 79.65956 33942 ft 405 kts 281°
2026-05-05 15:38 55.67737 79.56226 33938 ft 405 kts 281°
2026-05-05 15:39 55.68975 79.46458 33934 ft 405 kts 281°
2026-05-05 15:39 55.70194 79.36769 33933 ft 405 kts 281°
2026-05-05 15:40 55.71413 79.27009 33935 ft 405 kts 281°
2026-05-05 15:40 55.72624 79.17247 33929 ft 405 kts 281°
2026-05-05 15:41 55.73829 79.07470 33927 ft 405 kts 281°
2026-05-05 15:41 55.75028 78.97678 33923 ft 405 kts 280°
2026-05-05 15:42 55.76206 78.87964 33923 ft 405 kts 280°
2026-05-05 15:42 55.77386 78.78166 33923 ft 405 kts 280°
2026-05-05 15:43 55.78558 78.68370 33921 ft 405 kts 280°
2026-05-05 15:43 55.79722 78.58574 33920 ft 405 kts 280°
2026-05-05 15:44 55.80881 78.48746 33918 ft 405 kts 280°
2026-05-05 15:44 55.82023 78.38984 33915 ft 405 kts 279°
2026-05-05 15:45 55.83166 78.29144 33914 ft 405 kts 279°
2026-05-05 15:45 55.84304 78.19307 33911 ft 406 kts 279°
2026-05-05 15:46 55.85434 78.09467 33910 ft 406 kts 279°
2026-05-05 15:46 55.86548 77.99654 33909 ft 406 kts 279°
2026-05-05 15:47 55.87661 77.89787 33908 ft 406 kts 279°
2026-05-05 15:47 55.88700 77.79895 33906 ft 407 kts 278°
2026-05-05 15:48 55.89722 77.69964 33908 ft 407 kts 278°
2026-05-05 15:48 55.90742 77.60042 33907 ft 407 kts 278°
2026-05-05 15:49 55.91749 77.50159 33909 ft 408 kts 278°
2026-05-05 15:49 55.92756 77.40185 33906 ft 408 kts 278°
2026-05-05 15:50 55.93756 77.30204 33910 ft 409 kts 278°
2026-05-05 15:50 55.94749 77.20207 33906 ft 409 kts 278°
2026-05-05 15:51 55.95734 77.10194 33908 ft 410 kts 277°
2026-05-05 15:51 55.96715 77.00146 33907 ft 410 kts 277°
2026-05-05 15:52 55.97683 76.90141 33909 ft 411 kts 277°
2026-05-05 15:52 55.98649 76.80068 33903 ft 412 kts 277°
2026-05-05 15:53 55.99609 76.69975 33900 ft 412 kts 277°
2026-05-05 15:53 56.00401 76.61570 33901 ft 412 kts 277°
2026-05-05 15:54 56.01347 76.51456 33898 ft 413 kts 277°
2026-05-05 15:54 56.02274 76.41323 33900 ft 413 kts 276°
2026-05-05 15:55 56.03050 76.31149 33961 ft 413 kts 274°
2026-05-05 15:55 56.03464 76.26139 33910 ft 401 kts 278°
2026-05-05 15:55 56.03982 76.21344 33897 ft 387 kts 278°
2026-05-05 15:56 56.04972 76.11753 33893 ft 399 kts 277°
2026-05-05 15:56 56.05892 76.01822 33897 ft 413 kts 276°
2026-05-05 15:57 56.06786 75.91622 33891 ft 414 kts 276°
2026-05-05 15:57 56.07665 75.81430 33889 ft 414 kts 276°
2026-05-05 15:58 56.08546 75.71239 33887 ft 414 kts 276°
2026-05-05 15:58 56.09421 75.61034 33889 ft 415 kts 275°
2026-05-05 15:59 56.10289 75.50812 33886 ft 415 kts 275°
2026-05-05 15:59 56.11150 75.40593 33886 ft 415 kts 275°
2026-05-05 16:00 56.12002 75.30362 33883 ft 415 kts 275°
2026-05-05 16:00 56.12847 75.20108 33880 ft 415 kts 275°
2026-05-05 16:01 56.13680 75.09855 33879 ft 416 kts 275°
2026-05-05 16:01 56.14501 74.99657 33876 ft 415 kts 274°
2026-05-05 16:02 56.15320 74.89401 33876 ft 415 kts 274°
2026-05-05 16:02 56.16131 74.79115 33867 ft 416 kts 274°
2026-05-05 16:03 56.16937 74.68826 33861 ft 415 kts 274°
2026-05-05 16:03 56.17728 74.58614 33861 ft 415 kts 274°
2026-05-05 16:04 56.18513 74.48340 33857 ft 415 kts 274°
2026-05-05 16:04 56.19287 74.38055 33856 ft 415 kts 274°
2026-05-05 16:05 56.20055 74.27766 33850 ft 415 kts 274°
2026-05-05 16:05 56.20813 74.17535 33848 ft 415 kts 274°
2026-05-05 16:06 56.21567 74.07237 33847 ft 415 kts 274°
2026-05-05 16:06 56.22310 73.96928 33836 ft 415 kts 272°
2026-05-05 16:07 56.22576 73.86635 33852 ft 411 kts 266°
2026-05-05 16:07 56.22525 73.76399 33842 ft 411 kts 266°
2026-05-05 16:08 56.22503 73.66130 33842 ft 411 kts 267°
2026-05-05 16:08 56.22464 73.55837 33841 ft 411 kts 266°
2026-05-05 16:09 56.22409 73.45567 33837 ft 410 kts 266°
2026-05-05 16:09 56.22348 73.35303 33838 ft 410 kts 266°
2026-05-05 16:10 56.22276 73.25119 33839 ft 410 kts 266°
2026-05-05 16:10 56.22194 73.14866 33840 ft 410 kts 266°
2026-05-05 16:11 56.22104 73.04616 33834 ft 410 kts 266°
2026-05-05 16:12 56.21901 72.84174 33835 ft 410 kts 266°
2026-05-05 16:13 56.21596 72.58559 33829 ft 410 kts 266°
2026-05-05 16:13 56.21461 72.48360 33828 ft 410 kts 266°
2026-05-05 16:14 56.21165 72.27849 33823 ft 410 kts 266°
2026-05-05 16:15 56.20836 72.07407 33819 ft 410 kts 266°
2026-05-05 16:16 56.20471 71.86871 33820 ft 410 kts 266°
2026-05-05 16:17 56.20174 71.71471 33816 ft 411 kts 266°
2026-05-05 16:18 56.19860 71.56126 33821 ft 411 kts 266°
2026-05-05 16:19 56.19526 71.40735 33821 ft 411 kts 266°
2026-05-05 16:19 56.19174 71.25397 33819 ft 411 kts 266°
2026-05-05 16:20 56.18674 71.04875 33824 ft 410 kts 266°
2026-05-05 16:22 56.18001 70.79284 33832 ft 411 kts 266°
2026-05-05 16:23 56.17425 70.58800 33844 ft 411 kts 266°
2026-05-05 16:23 56.16971 70.43430 33845 ft 410 kts 266°
2026-05-05 16:24 56.16659 70.33237 33847 ft 411 kts 266°
2026-05-05 16:25 56.16171 70.17852 33855 ft 411 kts 266°
2026-05-05 16:25 56.15668 70.02535 33858 ft 411 kts 266°
2026-05-05 16:26 56.14964 69.82039 33870 ft 410 kts 266°
2026-05-05 16:27 56.14606 69.71866 33878 ft 411 kts 266°
2026-05-05 16:27 56.14265 69.61618 33880 ft 410 kts 268°
2026-05-05 16:28 56.14181 69.51351 33888 ft 411 kts 269°
2026-05-05 16:28 56.14056 69.41143 33893 ft 410 kts 265°
2026-05-05 16:29 56.13522 69.30917 33892 ft 411 kts 265°
2026-05-05 16:29 56.12989 69.20776 33891 ft 410 kts 265°
2026-05-05 16:30 56.12443 69.10582 33904 ft 411 kts 265°
2026-05-05 16:30 56.11893 69.00368 33901 ft 410 kts 265°
2026-05-05 16:31 56.11335 68.90199 33907 ft 410 kts 265°
2026-05-05 16:31 56.10763 68.80015 33909 ft 409 kts 265°
2026-05-05 16:32 56.10183 68.69848 33909 ft 410 kts 265°
2026-05-05 16:32 56.09599 68.59754 33912 ft 409 kts 264°
2026-05-05 16:33 56.09004 68.49607 33919 ft 409 kts 264°
2026-05-05 16:33 56.08399 68.39446 33919 ft 408 kts 264°
2026-05-05 16:34 56.07892 68.31031 33925 ft 409 kts 264°
2026-05-05 16:34 56.07172 68.19258 33928 ft 408 kts 264°
2026-05-05 16:35 56.06550 68.09214 33936 ft 408 kts 264°
2026-05-05 16:35 56.06024 68.00818 33939 ft 407 kts 264°
2026-05-05 16:36 56.05383 67.90726 33943 ft 408 kts 264°
2026-05-05 16:36 56.04736 67.80640 33943 ft 407 kts 264°
2026-05-05 16:37 56.04081 67.70583 33951 ft 407 kts 264°
2026-05-05 16:37 56.03422 67.60560 33952 ft 408 kts 263°
2026-05-05 16:38 56.02968 67.50499 33958 ft 407 kts 275°
2026-05-05 16:38 56.03921 67.40495 33959 ft 407 kts 279°
2026-05-05 16:39 56.05085 67.30582 33962 ft 407 kts 281°
2026-05-05 16:39 56.06304 67.20670 33965 ft 407 kts 281°
2026-05-05 16:40 56.07507 67.10851 33965 ft 407 kts 281°
2026-05-05 16:40 56.08703 67.00945 33959 ft 406 kts 280°
2026-05-05 16:41 56.09885 66.91062 33962 ft 406 kts 280°
2026-05-05 16:41 56.11061 66.81153 33967 ft 405 kts 280°
2026-05-05 16:42 56.12228 66.71256 33970 ft 405 kts 280°
2026-05-05 16:42 56.13387 66.61344 33964 ft 404 kts 280°
2026-05-05 16:44 56.14717 66.49827 33967 ft 420 kts 281°
2026-05-05 16:44 56.15316 66.44620 33959 ft 430 kts 281°
2026-05-05 16:44 56.16335 66.35737 33966 ft 444 kts 281°
2026-05-05 16:45 56.17591 66.24715 33966 ft 452 kts 281°
2026-05-05 16:45 56.18838 66.13672 33960 ft 442 kts 281°
2026-05-05 16:46 56.19434 66.08366 33961 ft 427 kts 281°
2026-05-05 16:46 56.20009 66.03222 33959 ft 425 kts 281°
2026-05-05 16:46 56.21177 65.92701 33956 ft 430 kts 281°
2026-05-05 16:47 56.22337 65.82158 33957 ft 430 kts 281°
2026-05-05 16:47 56.23488 65.71608 33954 ft 430 kts 280°
2026-05-05 16:48 56.24628 65.61078 33954 ft 430 kts 280°
2026-05-05 16:48 56.25765 65.50496 33956 ft 431 kts 280°
2026-05-05 16:49 56.26893 65.39895 33954 ft 431 kts 280°
2026-05-05 16:49 56.28013 65.29276 33944 ft 432 kts 280°
2026-05-05 16:50 56.29119 65.18711 33945 ft 432 kts 280°
2026-05-05 16:50 56.30226 65.08049 33945 ft 433 kts 280°
2026-05-05 16:51 56.31322 64.97389 33944 ft 433 kts 280°
2026-05-05 16:51 56.32410 64.86701 33945 ft 434 kts 280°
2026-05-05 16:52 56.33493 64.75974 33940 ft 435 kts 280°
2026-05-05 16:52 56.34560 64.65300 33942 ft 435 kts 280°
2026-05-05 16:53 56.35625 64.54553 33945 ft 436 kts 280°
2026-05-05 16:53 56.36683 64.43776 33944 ft 436 kts 280°
2026-05-05 16:54 56.37726 64.33048 33945 ft 436 kts 280°
2026-05-05 16:54 56.38766 64.22241 33949 ft 437 kts 280°
2026-05-05 16:55 56.39798 64.11416 33934 ft 437 kts 280°
2026-05-05 16:55 56.40823 64.00574 33930 ft 438 kts 280°
2026-05-05 16:56 56.41779 63.89704 33925 ft 439 kts 277°
2026-05-05 16:56 56.42702 63.78813 33926 ft 439 kts 280°
2026-05-05 16:57 56.43823 63.67966 33927 ft 439 kts 282°
2026-05-05 16:57 56.45109 63.57233 33799 ft 438 kts 283°
2026-05-05 16:58 56.45772 63.51843 33170 ft 439 kts 284°
2026-05-05 16:58 56.46440 63.46418 32181 ft 445 kts 284°
2026-05-05 16:58 56.47117 63.40890 30986 ft 453 kts 285°
2026-05-05 16:58 56.47800 63.35274 29733 ft 462 kts 285°
2026-05-05 16:59 56.48491 63.29573 28622 ft 464 kts 285°
2026-05-05 16:59 56.49177 63.23889 27908 ft 457 kts 285°
2026-05-05 16:59 56.49840 63.18352 27426 ft 445 kts 285°
2026-05-05 16:59 56.50491 63.12907 26736 ft 440 kts 285°
2026-05-05 17:00 56.51136 63.07502 26039 ft 435 kts 285°
2026-05-05 17:00 56.51770 63.02177 25353 ft 431 kts 285°
2026-05-05 17:00 56.52391 62.96952 24622 ft 429 kts 285°
2026-05-05 17:00 56.53013 62.91695 23979 ft 424 kts 285°
2026-05-05 17:01 56.53629 62.86471 23259 ft 421 kts 284°
2026-05-05 17:01 56.54235 62.81302 22558 ft 416 kts 284°
2026-05-05 17:01 56.54831 62.76203 21879 ft 411 kts 284°
2026-05-05 17:01 56.55419 62.71152 21201 ft 407 kts 284°
2026-05-05 17:02 56.55998 62.66157 20524 ft 402 kts 284°
2026-05-05 17:02 56.56570 62.61212 19859 ft 399 kts 284°
2026-05-05 17:02 56.57135 62.56306 19189 ft 395 kts 284°
2026-05-05 17:02 56.57686 62.51503 18520 ft 392 kts 283°
2026-05-05 17:03 56.58239 62.46663 17827 ft 389 kts 283°
2026-05-05 17:03 56.58782 62.41883 17161 ft 384 kts 283°
2026-05-05 17:03 56.59316 62.37173 16512 ft 379 kts 283°
2026-05-05 17:03 56.59842 62.32509 15872 ft 375 kts 283°
2026-05-05 17:04 56.60361 62.27889 15213 ft 372 kts 283°
2026-05-05 17:04 56.60875 62.23311 14588 ft 369 kts 283°
2026-05-05 17:04 56.61385 62.18755 13938 ft 367 kts 283°
2026-05-05 17:04 56.61887 62.14241 13278 ft 364 kts 283°
2026-05-05 17:05 56.62384 62.09756 12665 ft 359 kts 282°
2026-05-05 17:05 56.62872 62.05343 12051 ft 354 kts 282°
2026-05-05 17:05 56.63353 62.00975 11440 ft 350 kts 282°
2026-05-05 17:05 56.63827 61.96657 10839 ft 346 kts 282°
2026-05-05 17:06 56.64287 61.92445 10258 ft 342 kts 282°
2026-05-05 17:06 56.64738 61.88297 9980 ft 323 kts 282°
2026-05-05 17:06 56.65157 61.84426 9777 ft 300 kts 282°
2026-05-05 17:06 56.65545 61.80830 9560 ft 280 kts 282°
2026-05-05 17:07 56.65915 61.77402 9036 ft 275 kts 281°
2026-05-05 17:07 56.66281 61.74002 8576 ft 274 kts 281°
2026-05-05 17:07 56.66645 61.70614 8177 ft 271 kts 281°
2026-05-05 17:07 56.67000 61.67305 8009 ft 264 kts 281°
2026-05-05 17:08 56.67355 61.63988 7814 ft 271 kts 281°
2026-05-05 17:08 56.67717 61.60582 7421 ft 276 kts 281°
2026-05-05 17:08 56.68079 61.57177 7124 ft 271 kts 281°
2026-05-05 17:08 56.68434 61.53831 6752 ft 269 kts 281°
2026-05-05 17:09 56.68787 61.50491 6341 ft 268 kts 281°
2026-05-05 17:09 56.69134 61.47205 5906 ft 267 kts 281°
2026-05-05 17:09 56.69484 61.43879 5482 ft 266 kts 280°
2026-05-05 17:09 56.69829 61.40589 5089 ft 264 kts 280°
2026-05-05 17:10 56.70171 61.37316 4687 ft 263 kts 280°
2026-05-05 17:10 56.70510 61.34054 4276 ft 261 kts 280°
2026-05-05 17:10 56.70843 61.30854 3891 ft 260 kts 280°
2026-05-05 17:10 56.71178 61.27621 3488 ft 259 kts 279°
2026-05-05 17:11 56.71511 61.24396 3092 ft 258 kts 279°
2026-05-05 17:11 56.71841 61.21201 2793 ft 253 kts 279°
2026-05-05 17:11 56.72159 61.18109 2702 ft 242 kts 279°
2026-05-05 17:11 56.72449 61.15278 2696 ft 215 kts 279°
2026-05-05 17:12 56.72701 61.12835 2737 ft 176 kts 279°
2026-05-05 17:12 56.72883 61.10822 2666 ft 147 kts 276°
2026-05-05 17:12 56.72990 61.09117 2563 ft 125 kts 274°
2026-05-05 17:12 56.73060 61.07588 2360 ft 117 kts 272°
2026-05-05 17:13 56.73119 61.06126 2328 ft 117 kts 272°
2026-05-05 17:13 56.73177 61.04628 2300 ft 116 kts 272°
2026-05-05 17:13 56.73236 61.03135 2298 ft 118 kts 273°
2026-05-05 17:13 56.73294 61.01668 2300 ft 118 kts 273°
2026-05-05 17:14 56.73353 61.00182 2301 ft 117 kts 272°
2026-05-05 17:14 56.73411 60.98700 2295 ft 117 kts 272°
2026-05-05 17:14 56.73470 60.97216 2298 ft 117 kts 273°
2026-05-05 17:14 56.73528 60.95726 2225 ft 118 kts 273°
2026-05-05 17:15 56.73587 60.94241 2076 ft 117 kts 273°
2026-05-05 17:15 56.73645 60.92757 1918 ft 118 kts 272°
2026-05-05 17:15 56.73703 60.91284 1767 ft 118 kts 272°
2026-05-05 17:15 56.73763 60.89777 1604 ft 118 kts 273°
2026-05-05 17:16 56.73821 60.88290 1443 ft 120 kts 273°
2026-05-05 17:16 56.73881 60.86765 1286 ft 121 kts 273°
2026-05-05 17:16 56.73941 60.85236 1109 ft 120 kts 273°
2026-05-05 17:16 56.74002 60.83703 957 ft 120 kts 273°
2026-05-05 17:17 56.74062 60.82184 803 ft 120 kts 273°
2026-05-05 17:17 56.74117 60.80870 762 ft 69 kts 275°
2026-05-05 17:17 56.74150 60.80080 755 ft 59 kts 273°
2026-05-05 17:17 56.74175 60.79402 753 ft 50 kts 274°
2026-05-05 17:18 56.74206 60.79085 750 ft 1 kts 327°
2026-05-05 17:18 56.74261 60.79105 750 ft 19 kts 12°
2026-05-05 17:18 56.74322 60.79126 750 ft 3 kts
2026-05-05 17:18 56.74370 60.79139 752 ft 1 kts 10°
2026-05-05 17:19 56.74379 60.79142 750 ft 0 kts 10°
2026-05-05 17:19 56.74413 60.79153 751 ft 18 kts 10°
2026-05-05 17:19 56.74584 60.79184 751 ft 26 kts 359°
2026-05-05 17:19 56.74718 60.79195 752 ft 13 kts 23°
2026-05-05 17:20 56.74779 60.79290 751 ft 13 kts
2026-05-05 17:20 56.74853 60.79379 752 ft 15 kts 81°
2026-05-05 17:20 56.74849 60.79589 752 ft 17 kts 72°
2026-05-05 17:20 56.74851 60.79608 753 ft 0 kts 81°
2026-05-05 17:22 56.74853 60.79661 756 ft 8 kts 87°
2026-05-05 17:22 56.74856 60.79792 754 ft 5 kts 88°
2026-05-05 17:22 56.74857 60.79812 757 ft 3 kts 77°
2026-05-05 17:22 56.74885 60.79831 754 ft 8 kts
2026-05-05 17:23 56.74921 60.79836 754 ft 2 kts
2026-05-05 17:23 56.74930 60.79837 754 ft 3 kts
2026-05-05 17:23 56.74945 60.79835 754 ft 0 kts